Temp
7 7 6 6 6 5 5 5 5 5 5 5 5 5 6 6 6 5 6 6 5 5 5 5 5 5 5 5 4 4 4 4 4 4 4 3 3 2 2 2 2 2 2
7 6 6 6 5 5 5 5 5 5 5 5 5 5 6 6 6 6 5 5 5 5 5 5 5 4 4 4 4 4 4 4 4 3 3 3 3 2 2 2 2 2 2
7 6 6 5 5 5 5 5 5 5 5 5 6 6 6 6 5 5 5 5 5 5 4 4 4 4 4 4 4 4 3 3 3 3 3 3 3 3 2 2 1 1 1
6 6 5 5 5 5 5 5 5 5 5 6 6 6 5 5 5 5 5 5 5 4 4 4 3 3 3 3 3 3 3 2 2 3 2 3 3 2 2 1 0 0 0
6 6 5 5 6 5 5 5 5 5 6 6 5 5 5 5 5 5 5 4 4 3 3 3 3 3 3 2 2 2 3 2 3 2 2 2 2 2 1 1 0 0 -1
6 6 6 6 5 5 5 5 5 5 5 5 5 5 5 6 5 4 4 3 3 3 3 3 2 2 3 3 2 2 2 2 2 2 2 2 2 1 0 1 1 0 -0
6 6 5 5 5 5 5 5 5 5 5 5 5 5 5 5 5 4 4 4 4 3 3 3 2 2 2 2 2 2 2 2 2 1 1 2 1 1 0 1 1 1 0
6 6 5 5 5 5 5 5 5 5 5 5 5 5 5 5 4 4 4 4 3 3 3 2 2 3 3 2 2 3 2 2 2 2 2 1 1 1 1 1 1 0 0
6 5 5 5 5 5 5 5 5 5 5 5 5 5 4 4 4 3 3 3 3 3 3 3 2 2 2 2 2 2 2 2 2 2 1 1 1 1 0 1 1 1 0
5 5 5 5 5 5 5 5 5 5 5 5 4 5 4 3 3 3 4 3 3 3 3 2 2 2 2 2 2 1 2 2 2 1 1 1 0 -0 -0 -0 0 1 0
5 5 5 5 5 5 5 5 5 5 5 5 4 4 4 3 3 3 3 3 3 3 3 2 2 2 2 2 2 2 2 2 1 -0 0 0 0 -0 -1 -2 -1 -1 -1
5 5 5 5 5 5 5 5 4 4 4 4 5 4 4 3 3 3 3 3 3 3 3 2 2 2 2 2 2 1 1 1 1 1 0 0 -0 -0 -1 -1 -1 -1 -1
5 5 5 5 5 5 4 4 4 4 4 4 3 3 3 3 3 3 3 3 3 3 2 1 1 1 1 1 1 1 1 1 1 1 0 0 0 -0 -1 -1 -1 -1 -1
5 5 5 5 4 4 4 3 3 3 4 4 3 2 3 2 2 3 3 3 2 3 2 2 2 1 1 1 1 1 0 0 0 -0 0 0 -0 -1 -1 -1 -1 -2 -1
4 4 4 4 4 3 3 3 2 2 3 3 3 3 3 3 2 2 3 2 2 3 2 1 2 2 1 1 1 1 1 0 -0 -1 -1 -1 -1 -1 -2 -1 -2 -2 -2
3 3 3 4 3 3 2 2 2 2 2 3 2 2 2 3 2 2 2 2 2 2 2 1 1 1 1 1 1 1 1 0 0 -1 -1 -1 -1 -1 -2 -2 -2 -2 -2
2 2 2 3 3 3 2 2 2 1 2 2 2 2 2 3 2 2 2 2 2 1 1 1 1 1 1 1 0 0 0 0 0 0 -1 -1 -2 -1 -2 -3 -3 -3 -2
2 1 1 1 2 2 1 1 1 1 2 2 2 2 2 2 2 1 2 1 2 1 1 1 1 1 1 1 1 1 0 0 0 0 -0 -1 -1 -2 -2 -4 -2 -3 -2
1 1 1 0 0 1 0 1 0 2 2 1 1 2 2 1 1 1 1 2 2 1 1 2 2 1 1 1 1 1 1 1 1 0 -0 -0 -1 -2 -4 -4 -3 -4 -4
2 2 2 1 1 0 1 1 2 2 1 1 1 1 1 1 1 1 1 1 1 1 1 1 1 1 1 1 1 1 1 1 1 0 0 -1 -4 -4 -4 -3 -5 -4 -4
1 1 1 1 1 2 2 2 1 1 0 0 1 0 0 0 1 1 1 1 1 1 1 1 0 1 1 1 1 1 1 1 1 0 -0 -1 -4 -4 -4 -5 -5 -4 -4
1 1 1 1 1 1 1 1 1 0 -0 -0 -0 -0 -0 -0 -0 0 0 1 0 0 0 0 0 0 0 0 1 1 1 1 1 -0 -1 -2 -4 -4 -4 -5 -6 -4 -4
0 0 1 0 1 1 0 0 -0 -0 -0 -0 -1 -1 -1 -1 -0 -0 -0 -0 -0 0 0 0 -0 0 0 1 0 0 0 0 0 -0 -1 -3 -4 -5 -5 -5 -5 -4 -4
0 -0 -0 0 -0 -0 -0 -0 -0 -1 -1 -1 -1 -1 -1 -1 -1 -1 -1 -0 -0 -0 -0 -0 -0 -0 0 0 1 1 0 0 0 -1 -2 -2 -4 -4 -4 -4 -4 -4 -4
-0 -0 -0 -0 -0 -0 -0 -1 -1 -1 -1 -1 -1 -1 -1 -1 -1 -1 -1 -1 -0 -0 -0 -0 -1 -1 -1 -1 -0 0 0 0 0 -1 -2 -3 -4 -3 -4 -4 -4 -4 -4
-1 -1 -1 -1 -1 -1 -1 -1 -1 -1 -1 -2 -2 -2 -2 -2 -2 -1 -1 -1 -1 -0 -1 -1 -1 -1 -1 -1 -2 -1 -1 -1 -1 -2 -3 -4 -4 -5 -4 -4 -5 -4 -4
Height
3156 3162 3166 3169 3173 3176 3180 3182 3185 3187 3190 3192 3193 3195 3196 3197 3197 3198 3198 3198 3198 3197 3197 3196 3196 3195 3194 3192 3191 3189 3187 3185 3183 3181 3178 3177 3175 3172 3171 3169 3167 3164 3163
3154 3160 3164 3168 3172 3175 3179 3181 3184 3187 3189 3191 3193 3195 3196 3196 3197 3197 3197 3197 3196 3196 3195 3195 3194 3193 3193 3192 3190 3188 3186 3184 3182 3180 3178 3176 3173 3171 3170 3168 3167 3165 3163
3152 3158 3163 3167 3170 3174 3178 3181 3183 3186 3189 3191 3193 3195 3195 3196 3196 3195 3196 3195 3194 3193 3193 3192 3191 3191 3190 3190 3188 3187 3185 3183 3182 3180 3177 3174 3172 3170 3168 3167 3165 3164 3162
3150 3155 3161 3164 3168 3172 3177 3180 3183 3186 3188 3191 3192 3194 3194 3194 3194 3194 3192 3192 3192 3191 3190 3189 3190 3189 3188 3188 3186 3185 3183 3182 3180 3178 3176 3174 3171 3169 3166 3165 3164 3162 3161
3148 3153 3158 3162 3167 3171 3175 3179 3182 3185 3187 3190 3191 3192 3192 3192 3191 3191 3190 3189 3188 3188 3188 3187 3187 3186 3186 3185 3184 3183 3182 3180 3178 3177 3174 3173 3170 3167 3165 3164 3162 3162 3160
3145 3151 3156 3160 3166 3170 3174 3178 3181 3184 3186 3187 3189 3189 3190 3189 3189 3188 3187 3187 3186 3186 3183 3182 3183 3183 3184 3184 3184 3182 3181 3179 3178 3176 3174 3172 3169 3165 3163 3163 3162 3160 3159
3143 3149 3154 3160 3165 3169 3174 3176 3179 3182 3184 3185 3186 3186 3186 3186 3186 3186 3186 3184 3183 3182 3181 3179 3179 3180 3180 3180 3179 3179 3178 3176 3175 3172 3169 3167 3166 3164 3162 3160 3157 3156 3155
3140 3147 3153 3158 3162 3167 3171 3174 3177 3178 3179 3181 3182 3183 3182 3184 3183 3183 3182 3181 3180 3179 3179 3178 3176 3176 3176 3177 3176 3175 3174 3172 3170 3167 3165 3163 3162 3159 3158 3156 3156 3154 3152
3137 3143 3149 3155 3160 3165 3169 3171 3174 3175 3175 3177 3178 3179 3178 3179 3179 3180 3180 3179 3178 3177 3175 3175 3174 3173 3172 3173 3172 3171 3168 3167 3165 3162 3160 3159 3158 3157 3155 3154 3153 3152 3150
3133 3138 3145 3152 3157 3161 3165 3168 3169 3170 3172 3174 3174 3174 3174 3176 3175 3176 3176 3176 3175 3174 3173 3171 3170 3170 3168 3168 3166 3165 3163 3161 3159 3157 3157 3156 3154 3152 3151 3150 3148 3148 3148
3130 3135 3142 3147 3153 3157 3160 3163 3166 3167 3168 3170 3170 3171 3172 3171 3170 3171 3173 3173 3171 3170 3168 3167 3166 3164 3163 3162 3161 3160 3158 3156 3154 3153 3152 3150 3149 3148 3146 3145 3145 3143 3141
3124 3129 3137 3143 3147 3151 3156 3159 3161 3164 3165 3167 3168 3169 3169 3168 3167 3168 3168 3167 3166 3166 3164 3164 3162 3161 3160 3159 3158 3156 3154 3152 3150 3149 3148 3146 3144 3143 3141 3140 3140 3138 3137
3119 3126 3131 3137 3143 3147 3151 3154 3157 3159 3161 3161 3162 3165 3164 3163 3163 3164 3163 3162 3161 3162 3160 3159 3158 3156 3155 3154 3153 3151 3150 3148 3146 3145 3143 3142 3140 3139 3138 3137 3135 3134 3132
3116 3122 3127 3131 3136 3140 3145 3147 3150 3154 3157 3160 3161 3159 3159 3161 3160 3160 3159 3158 3157 3156 3155 3155 3154 3153 3151 3150 3148 3147 3144 3142 3141 3140 3139 3137 3136 3133 3131 3129 3130 3129 3127
3110 3115 3120 3125 3129 3132 3137 3139 3144 3148 3152 3154 3155 3156 3156 3156 3155 3154 3154 3153 3151 3151 3152 3151 3150 3149 3146 3144 3142 3140 3138 3137 3135 3133 3132 3131 3129 3128 3128 3124 3122 3122 3121
3104 3109 3114 3118 3121 3125 3130 3132 3135 3140 3146 3148 3149 3149 3150 3150 3150 3150 3150 3148 3146 3145 3146 3145 3143 3141 3140 3138 3136 3133 3132 3129 3127 3126 3126 3125 3124 3122 3121 3122 3120 3117 3115
3099 3103 3107 3113 3116 3119 3122 3124 3130 3135 3139 3142 3143 3144 3145 3145 3144 3144 3144 3141 3140 3139 3138 3138 3136 3134 3132 3130 3129 3126 3124 3123 3121 3120 3119 3118 3119 3118 3116 3115 3113 3113 3111
3092 3098 3101 3106 3108 3111 3114 3118 3123 3130 3134 3136 3139 3139 3139 3139 3139 3139 3137 3135 3134 3133 3131 3130 3130 3128 3127 3125 3122 3120 3117 3116 3114 3113 3111 3109 3109 3109 3110 3111 3109 3106 3106
3083 3086 3088 3094 3100 3103 3105 3111 3115 3122 3127 3130 3132 3132 3133 3133 3132 3132 3130 3128 3128 3126 3125 3123 3122 3122 3119 3117 3114 3111 3109 3107 3105 3103 3104 3102 3100 3101 3102 3102 3103 3101 3100
3080 3082 3084 3087 3093 3096 3101 3106 3112 3117 3121 3125 3126 3127 3128 3127 3125 3125 3124 3123 3121 3120 3119 3116 3116 3114 3112 3109 3106 3104 3101 3097 3097 3094 3093 3092 3092 3094 3094 3095 3094 3094 3093
3078 3081 3082 3086 3091 3094 3099 3103 3108 3112 3116 3119 3118 3119 3120 3120 3118 3117 3116 3114 3113 3113 3112 3109 3107 3105 3103 3101 3097 3095 3092 3090 3087 3088 3085 3085 3084 3087 3086 3088 3086 3085 3085
3075 3078 3083 3085 3091 3093 3096 3099 3104 3108 3110 3113 3113 3114 3114 3113 3111 3110 3109 3107 3106 3105 3103 3101 3100 3097 3094 3092 3090 3087 3084 3081 3079 3078 3076 3076 3078 3078 3078 3079 3078 3077 3077
3073 3076 3078 3083 3087 3089 3090 3094 3098 3103 3105 3106 3107 3108 3107 3107 3106 3104 3102 3100 3099 3095 3095 3094 3092 3089 3087 3084 3083 3079 3076 3074 3071 3070 3068 3069 3068 3069 3070 3071 3070 3070 3070
3071 3074 3077 3079 3082 3085 3087 3087 3091 3095 3097 3099 3099 3099 3099 3098 3097 3095 3094 3091 3089 3088 3088 3085 3083 3082 3079 3076 3073 3072 3069 3066 3064 3061 3061 3060 3061 3059 3060 3061 3062 3063 3063
3068 3072 3074 3077 3078 3079 3080 3083 3085 3088 3090 3091 3091 3091 3090 3089 3090 3087 3085 3085 3081 3080 3078 3077 3075 3073 3071 3069 3066 3063 3059 3056 3054 3054 3054 3051 3055 3053 3052 3054 3055 3056 3055
3065 3067 3070 3071 3071 3073 3075 3077 3079 3080 3081 3082 3082 3083 3082 3081 3080 3079 3079 3076 3073 3071 3071 3067 3066 3063 3062 3061 3059 3056 3051 3049 3046 3046 3044 3048 3047 3046 3046 3047 3049 3049 3050
Wind_Speed
32 29 27 27 27 25 23 20 18 15 13 11 9 7 5 4 5 4 6 7 9 10 11 12 13 13 14 15 15 16 17 17 18 17 17 16 15 15 15 15 15 15 17
33 30 30 30 29 27 24 21 17 14 12 9 7 4 2 2 5 6 7 9 10 11 12 12 13 13 14 14 15 16 16 17 17 18 19 19 17 15 14 14 15 15 16
34 31 32 33 30 27 24 20 17 14 11 8 5 2 1 4 6 9 9 10 12 13 13 13 13 14 15 14 16 17 17 15 16 20 26 21 19 19 16 13 13 13 14
35 35 36 36 32 28 24 20 16 13 10 7 3 2 4 6 9 11 13 14 14 15 15 15 14 17 14 14 15 16 17 14 16 22 23 22 20 18 16 11 11 12 11
35 39 39 37 33 28 24 20 16 13 9 6 4 5 7 9 12 14 14 13 14 16 17 19 21 20 15 14 14 15 14 14 21 22 24 25 22 20 17 15 13 14 12
39 41 40 36 32 28 24 19 16 12 9 7 7 8 11 13 14 14 14 15 19 20 19 18 17 17 17 16 15 20 19 19 27 28 27 29 27 23 20 20 17 15 15
40 41 39 36 32 28 24 20 16 12 10 9 9 12 14 14 17 13 15 18 21 17 17 16 15 15 15 15 19 20 23 23 29 25 25 27 27 24 17 20 20 17 15
40 42 40 38 34 29 25 20 17 14 12 12 13 14 17 16 16 15 15 16 15 19 19 18 16 15 15 17 20 20 24 25 27 26 30 28 18 16 11 16 18 17 17
42 44 43 39 34 29 24 21 18 16 16 15 13 16 17 18 19 17 17 15 17 20 17 17 17 19 21 21 19 21 22 22 24 24 23 28 28 23 10 15 16 17 17
45 45 44 39 34 31 27 24 22 20 19 14 16 18 20 18 22 22 18 18 21 19 17 17 17 15 14 17 15 16 17 19 21 21 22 23 22 17 13 11 13 15 17
45 46 44 39 36 33 30 26 23 22 19 12 13 18 20 21 18 21 22 19 20 19 18 16 17 15 15 14 16 17 19 18 18 19 24 24 25 21 21 12 14 14 17
47 47 43 41 39 35 30 27 25 20 18 20 15 17 24 20 19 20 22 20 19 18 18 17 16 16 16 18 19 20 21 21 20 21 22 24 23 24 21 15 16 18 17
45 44 44 42 38 34 32 29 26 19 11 18 27 25 24 21 21 23 22 21 21 19 18 18 18 18 18 20 22 22 23 23 23 25 25 25 26 25 16 21 24 18 18
41 42 42 40 38 35 34 30 27 25 16 25 19 18 22 22 23 23 22 23 22 19 17 18 16 17 21 23 25 27 27 27 27 27 26 28 25 25 26 24 23 25 20
37 40 41 39 37 36 35 33 30 26 27 30 23 22 22 22 21 22 24 24 21 19 17 19 19 19 22 23 25 27 27 28 28 27 28 29 27 25 27 25 25 26 25
39 39 40 40 42 40 36 33 30 35 24 24 24 24 22 23 24 25 24 22 22 23 22 22 24 24 25 25 27 27 27 28 28 29 30 29 29 28 23 25 30 25 23
33 36 35 41 45 44 40 40 39 28 25 26 25 23 22 24 24 24 23 23 23 26 27 24 25 26 27 27 26 27 27 27 28 29 29 30 31 30 27 25 24 23 21
42 56 48 44 45 51 47 43 50 39 27 24 24 23 23 23 25 25 24 24 25 28 28 28 27 27 29 30 29 27 28 27 28 29 29 29 29 31 28 24 24 24 20
35 24 46 56 57 49 43 48 30 30 30 26 24 25 24 26 26 25 25 26 26 28 29 29 30 29 29 30 31 31 30 30 30 30 30 29 29 28 26 26 29 27 26
17 17 25 34 39 23 25 22 26 28 27 25 25 25 25 26 26 27 27 27 27 28 29 30 31 32 31 31 32 32 31 31 31 30 31 31 24 29 25 29 29 32 31
19 19 20 21 23 24 24 25 27 27 25 26 27 26 27 28 28 28 28 29 28 28 29 30 32 33 33 33 34 34 33 33 34 33 31 30 25 21 25 31 36 30 26
21 23 24 23 24 21 22 24 27 29 29 30 29 30 30 30 29 28 28 29 29 29 29 30 32 33 33 33 34 35 35 34 33 32 32 29 24 24 30 37 35 29 23
20 22 22 20 21 24 26 27 28 31 31 31 33 33 32 31 30 29 29 29 29 29 30 32 31 32 33 33 34 35 35 34 33 33 32 31 30 29 32 34 32 25 21
19 20 23 23 24 25 27 28 28 30 32 33 34 34 33 31 29 30 29 29 29 29 30 31 30 31 32 34 35 35 34 33 31 30 30 30 29 29 30 28 25 23 22
16 19 20 21 24 25 27 28 31 32 34 35 35 34 32 30 31 30 30 30 29 30 30 31 30 31 31 33 34 35 33 31 30 27 27 28 27 26 25 24 22 21 20
21 22 23 25 26 27 30 31 33 34 36 35 34 33 32 31 31 30 30 30 30 31 30 30 30 30 32 33 34 33 31 30 28 26 24 26 26 25 23 21 20 20 19
Wind_Direction
193 190 185 180 175 169 166 166 161 158 153 146 138 126 103 75 54 38 13 358 352 347 345 344 346 349 351 352 356 358 356 355 357 356 350 345 346 343 348 348 349 355 1
194 190 186 180 177 173 172 170 166 164 163 161 151 140 103 30 356 356 339 334 330 324 323 324 326 329 332 339 342 349 348 345 349 352 353 349 341 337 339 337 341 347 349
194 191 187 181 181 179 175 176 175 175 174 169 162 154 1 335 333 322 324 314 308 302 302 303 308 317 321 329 332 336 337 337 346 353 350 341 339 339 334 331 326 339 348
194 191 187 185 184 180 181 182 184 186 182 182 179 261 309 319 312 310 307 309 304 302 298 296 301 308 308 314 322 326 328 329 344 335 344 335 333 333 328 318 317 325 343
196 193 189 190 184 185 187 189 192 193 191 200 229 272 291 295 302 303 295 296 306 311 303 300 301 296 290 298 308 317 316 322 329 329 328 326 323 322 319 315 312 315 327
196 196 194 189 189 191 193 195 199 204 208 223 251 274 289 298 299 291 289 299 309 312 315 309 302 299 295 297 306 320 314 317 318 317 317 313 318 313 313 317 314 316 319
198 197 195 193 195 197 200 202 206 214 228 243 264 277 288 290 290 298 304 301 305 315 312 312 302 300 302 306 307 313 311 300 314 310 313 302 297 298 312 297 298 299 305
200 198 197 199 201 203 205 210 215 226 242 256 267 282 284 281 284 303 301 307 310 317 314 308 301 302 296 285 293 298 307 306 312 313 316 289 297 281 277 278 283 291 295
201 201 202 205 207 209 213 220 226 238 246 257 273 277 278 283 291 291 299 313 314 313 311 310 312 309 286 315 298 302 308 307 307 302 300 294 291 298 289 290 283 285 289
202 204 207 209 213 216 220 227 233 241 251 257 263 278 281 280 288 294 298 305 312 311 309 308 301 299 296 290 310 310 313 312 307 314 286 295 302 290 275 275 283 282 281
205 208 211 213 217 223 226 232 241 248 253 252 256 248 269 287 284 283 296 299 307 305 304 303 298 290 293 297 303 310 309 312 310 300 293 295 299 294 277 275 274 278 272
209 212 213 217 222 226 232 236 241 239 252 246 273 258 257 281 281 284 294 296 297 298 300 300 298 299 302 306 307 309 306 304 303 302 303 306 305 308 296 257 271 285 296
213 216 217 221 226 230 234 236 234 237 249 261 239 257 263 276 281 288 289 291 291 292 292 295 297 300 303 303 303 305 305 308 306 299 294 294 306 310 290 289 288 274 278
219 221 221 224 227 230 233 227 224 225 210 238 247 257 252 266 277 280 287 287 286 293 295 290 286 288 290 291 295 298 300 300 301 301 297 300 298 299 296 287 294 265 264
217 221 224 224 224 223 222 223 229 238 258 234 253 261 264 271 275 276 279 279 282 289 288 289 288 285 284 287 290 292 293 292 290 290 292 295 296 305 296 282 288 291 286
221 222 222 224 222 221 224 227 239 251 217 244 248 257 266 271 271 274 274 278 285 287 289 291 291 293 291 293 292 293 293 293 295 292 291 289 287 291 292 278 289 284 299
218 220 222 228 222 226 229 236 252 250 218 237 250 258 267 269 266 265 269 275 280 284 286 289 293 295 294 291 290 291 292 293 292 292 290 288 284 284 284 286 288 295 302
226 233 224 225 226 229 235 241 251 238 235 239 249 260 265 261 260 265 271 275 281 286 291 293 292 292 292 292 293 292 292 293 290 289 285 284 282 280 280 282 287 286 285
222 229 239 232 233 236 241 241 223 220 230 237 250 259 259 258 263 270 276 280 284 288 290 291 293 293 295 297 298 297 295 293 290 290 288 283 281 278 283 284 281 286 283
178 183 207 233 226 206 197 211 226 227 232 241 252 258 265 267 270 274 276 279 283 284 286 289 293 296 299 299 299 296 293 293 291 290 289 286 278 280 275 273 275 277 280
188 187 186 190 199 208 219 221 224 228 235 244 253 260 265 267 270 273 274 278 280 280 284 289 294 294 296 296 294 294 294 293 290 290 286 282 281 272 266 274 279 284 272
210 206 209 207 213 214 220 226 232 234 238 247 255 261 265 267 272 270 273 277 278 281 287 291 291 292 292 295 296 294 296 294 292 286 285 280 265 265 267 270 277 281 271
227 225 214 219 219 221 224 227 232 240 247 252 257 264 269 272 273 273 275 277 279 286 290 289 291 292 295 295 297 296 295 293 291 287 283 274 276 271 273 273 274 273 274
225 231 233 232 237 238 242 235 240 243 248 253 257 262 267 268 269 272 273 275 280 284 287 288 291 294 297 297 298 299 296 295 292 286 281 275 272 271 271 270 270 268 272
231 234 235 238 239 241 248 249 249 251 253 257 262 266 268 268 270 273 274 277 281 285 288 288 291 294 297 298 300 299 297 294 290 286 279 274 273 271 269 268 268 270 269
237 238 240 242 246 250 250 251 252 253 255 258 261 263 263 267 272 276 278 282 286 286 285 286 289 293 295 296 298 300 300 296 291 284 275 273 272 271 268 263 267 266 258